Boston, MA

4:43 PM EDT on April 26, 2017 (GMT -0400)
Logan International

Weather History for KBOS - February, 2014

Change the Weather History Date:

Friday, February 7, 2014

  Actual Average Record
Temperature  
Mean Temperature 25 °F 30 °F  
Max Temperature 30 °F 37 °F 56 °F (1925)
Min Temperature 19 °F 23 °F -5 °F (1875)
Degree Days  
Heating Degree Days 40 35  
Month to date heating degree days 234 245  
Since 1 July heating degree days 3380 3355  
Cooling Degree Days 0 0  
Month to date cooling degree days 0 0  
Year to date cooling degree days 0 0  
Moisture  
Dew Point 8 °F    
Average Humidity 50    
Maximum Humidity 57    
Minimum Humidity 42    
Precipitation  
Precipitation 0.00 in 0.11 in 1.93 in (1978)
Month to date precipitation 1.30 0.76  
Year to date precipitation 4.54 4.12  
Sea Level Pressure  
Sea Level Pressure 30.21 in    
Wind  
Wind Speed 11 mph (West)    
Max Wind Speed 18 mph    
Max Gust Speed 23 mph    
Visibility 10 miles    
Events      
T = Trace of Precipitation, MM = Missing Value Source: NWS Daily Summary

Daily Weather History Graph

Daily Weather History Graph

Search for Another Location

Airport or City:

Trip Planner

Search our weather history database for the weather conditions in past years. The results will help you decide how hot, cold, wet, or windy it might be!

Date:

Astronomy

Feb. 07, 2014 Rise Set
Actual Time 6:50 AM EST 5:05 PM EST
Civil Twilight 6:21 AM EST 5:35 PM EST
Nautical Twilight 5:48 AM EST 6:08 PM EST
Astronomical Twilight 5:15 AM EST 6:41 PM EST
Moon 11:14 AM EST (2/7) 1:04 AM EST (2/7)
Length of Visible Light 11h 13m
Length of Day
10h 15m
First Quarter, 59% of the Moon is Illuminated
Feb 7
First Quarter
Feb 14
Full
Feb 22
Last Quarter
Mar 1
New
Mar 8
First Quarter

Hourly Weather History & Observations

Time (EST) Temp. Windchill Dew Point Humidity Pressure Visibility Wind Dir Wind Speed Gust Speed Precip Events Conditions
12:54 AM 21.9 °F 12.5 °F 8.1 °F 55% 30.21 in 10.0 mi West 8.1 mph - N/A   Partly Cloudy
1:54 AM 21.0 °F 10.6 °F 6.1 °F 53% 30.21 in 10.0 mi West 9.2 mph - N/A   Scattered Clouds
2:54 AM 21.0 °F 9.9 °F 6.1 °F 53% 30.20 in 10.0 mi West 10.4 mph - N/A   Partly Cloudy
3:54 AM 19.9 °F 9.3 °F 6.1 °F 55% 30.21 in 10.0 mi West 9.2 mph - N/A   Scattered Clouds
4:54 AM 21.0 °F 9.3 °F 6.1 °F 53% 30.21 in 10.0 mi West 11.5 mph - N/A   Partly Cloudy
5:54 AM 21.0 °F 9.9 °F 6.1 °F 53% 30.22 in 10.0 mi West 10.4 mph - N/A   Partly Cloudy
6:54 AM 21.0 °F 7.6 °F 6.1 °F 53% 30.23 in 10.0 mi West 15.0 mph - N/A   Scattered Clouds
7:54 AM 21.9 °F 11.0 °F 7.0 °F 53% 30.25 in 10.0 mi West 10.4 mph 19.6 mph N/A   Scattered Clouds
8:54 AM 23.0 °F 11.1 °F 8.1 °F 53% 30.25 in 10.0 mi West 12.7 mph 23.0 mph N/A   Scattered Clouds
9:54 AM 24.1 °F 13.1 °F 8.1 °F 51% 30.27 in 10.0 mi West 11.5 mph - N/A   Scattered Clouds
10:54 AM 26.1 °F 15.0 °F 8.1 °F 47% 30.25 in 10.0 mi WNW 12.7 mph 20.7 mph N/A   Partly Cloudy
11:54 AM 27.0 °F 14.7 °F 8.1 °F 45% 30.21 in 10.0 mi WSW 16.1 mph 21.9 mph 0.00 in   Scattered Clouds
12:54 PM 28.0 °F 20.0 °F 8.1 °F 43% 30.18 in 10.0 mi West 8.1 mph 19.6 mph N/A   Scattered Clouds
1:54 PM 28.9 °F 19.2 °F 8.1 °F 41% 30.17 in 10.0 mi West 11.5 mph - N/A   Scattered Clouds
2:54 PM 30.0 °F 21.1 °F 10.0 °F 43% 30.16 in 10.0 mi West 10.4 mph 21.9 mph N/A   Scattered Clouds
3:54 PM 28.9 °F 18.6 °F 10.0 °F 45% 30.17 in 10.0 mi SW 12.7 mph - N/A   Scattered Clouds
4:54 PM 28.9 °F 18.6 °F 9.0 °F 43% 30.17 in 10.0 mi West 12.7 mph - N/A   Scattered Clouds
5:54 PM 28.0 °F 19.3 °F 9.0 °F 45% 30.17 in 10.0 mi WSW 9.2 mph - N/A   Scattered Clouds
6:54 PM 27.0 °F 17.3 °F 10.0 °F 49% 30.19 in 10.0 mi SW 10.4 mph - N/A   Scattered Clouds
7:54 PM 28.0 °F 18.1 °F 9.0 °F 45% 30.20 in 10.0 mi WSW 11.5 mph - N/A   Mostly Cloudy
8:54 PM 28.0 °F 18.6 °F 9.0 °F 45% 30.21 in 10.0 mi SW 10.4 mph - N/A   Overcast
9:54 PM 27.0 °F 18.7 °F 10.0 °F 49% 30.22 in 10.0 mi WSW 8.1 mph - N/A   Mostly Cloudy
10:54 PM 26.1 °F 17.6 °F 10.0 °F 51% 30.22 in 10.0 mi WSW 8.1 mph - N/A   Scattered Clouds
11:54 PM 25.0 °F 14.8 °F 8.1 °F 49% 30.22 in 10.0 mi West 10.4 mph - N/A   Partly Cloudy